Location: Asheville, NC
(35.6000°N, 82.5500°W)
Time: 07:46:35
(UTC-04:00)

AAUSAT CUBESAT 2 - Visible Passes

Search period start: 22 May 2018 00:00
Search period end: 01 June 2018 00:00
Orbit: 575 x 594 km, 97.5° (Epoch: 22 May)

Date Brightness Start Highest point End Pass type
(mag) Time Alt. Az. Time Alt. Az. Time Alt. Az.
22 May ? 21:10:39 10° SSW 21:13:58 24° W 21:17:18 10° NW visible
23 May ? 21:17:15 10° SW 21:20:17 20° W 21:23:20 10° NW visible
24 May ? 21:23:57 10° SW 21:26:38 17° W 21:29:19 10° NW visible
25 May ? 21:30:45 10° SW 21:32:57 14° W 21:35:10 10° WNW visible
26 May ? 21:37:48 10° WSW 21:39:18 12° W 21:40:48 10° WNW visible
